When you browse on this site, cookies collect data to enhance your experience and personalize the content and advertising you see.
Visit our Privacy Policy to learn more. By continuing to use the site, you agree to this use of cookies and data.
  • In Latvia
  • List of Countries
  • For 7 days
  • Water Temperature
  • Weather Map
  • Weather Widgets
  • user-avatar
    Login

    Hourly Weather Burgdorf

    Today, 30 May, Saturday

    Time Temperature Precipitation Wind Pressure Humidity
    00:00 +9°C° 0 mm 1 mps 710 mmHg 91%
    01:00 +8°C° 0 mm 1 mps 710 mmHg 94%
    02:00 +8°C° 0 mm 1 mps 710 mmHg 94%
    03:00 +7°C° 0 mm 1 mps 709 mmHg 94%
    04:00 +7°C° 0 mm 1 mps 709 mmHg 94%
    05:00 +8°C° 0 mm 1 mps 709 mmHg 89%
    06:00 +10°C° 0 mm 1 mps 710 mmHg 85%
    07:00 +12°C° 0 mm 1 mps 710 mmHg 79%
    08:00 +13°C° 0 mm 2 mps 710 mmHg 73%
    09:00 +15°C° 0 mm 2 mps 710 mmHg 66%
    10:00 +16°C° 0 mm 3 mps 710 mmHg 60%
    11:00 +17°C° 0 mm 3 mps 710 mmHg 55%
    12:00 +18°C° 0 mm 3 mps 709 mmHg 51%
    13:00 +19°C° 0 mm 4 mps 709 mmHg 47%
    14:00 +19°C° 0 mm 4 mps 709 mmHg 46%
    15:00 +19°C° 0 mm 4 mps 709 mmHg 45%
    16:00 +19°C° 0 mm 4 mps 709 mmHg 44%
    17:00 +18°C° 0 mm 3 mps 709 mmHg 52%
    18:00 +16°C° 0 mm 3 mps 708 mmHg 60%
    19:00 +14°C° 0 mm 3 mps 708 mmHg 67%
    20:00 +13°C° 0 mm 2 mps 708 mmHg 74%
    21:00 +12°C° 0 mm 2 mps 708 mmHg 80%
    22:00 +9°C° 0 mm 2 mps 709 mmHg 87%
    23:00 +9°C° 0 mm 1 mps 708 mmHg 89%

    Tomorrow, 31 May, Sunday

    Time Temperature Precipitation Wind Pressure Humidity
    00:00 +8°C° 0 mm 1 mps 708 mmHg 92%
    01:00 +8°C° 0 mm 1 mps 708 mmHg 94%
    02:00 +7°C° 0 mm 1 mps 708 mmHg 94%
    03:00 +7°C° 0 mm 1 mps 708 mmHg 94%
    04:00 +7°C° 0 mm 1 mps 708 mmHg 94%
    05:00 +8°C° 0 mm 1 mps 708 mmHg 89%
    06:00 +9°C° 0 mm 1 mps 708 mmHg 84%
    07:00 +9°C° 0 mm 2 mps 708 mmHg 79%
    08:00 +12°C° 0 mm 2 mps 708 mmHg 71%
    09:00 +13°C° 0 mm 3 mps 709 mmHg 63%
    10:00 +16°C° 0 mm 3 mps 709 mmHg 55%
    11:00 +17°C° 0 mm 4 mps 709 mmHg 52%
    12:00 +18°C° 0 mm 4 mps 709 mmHg 49%
    13:00 +19°C° 0 mm 4 mps 709 mmHg 45%
    14:00 +20°C° 0 mm 4 mps 709 mmHg 46%
    15:00 +20°C° 0 mm 4 mps 709 mmHg 47%
    16:00 +20°C° 0 mm 4 mps 709 mmHg 48%
    17:00 +19°C° 0 mm 3 mps 709 mmHg 54%
    18:00 +17°C° 0 mm 3 mps 708 mmHg 60%
    19:00 +16°C° 0 mm 3 mps 708 mmHg 66%
    20:00 +14°C° 0 mm 2 mps 708 mmHg 73%
    21:00 +12°C° 0 mm 2 mps 708 mmHg 80%
    22:00 +9°C° 0 mm 2 mps 708 mmHg 87%
    23:00 +9°C° 0 mm 2 mps 708 mmHg 88%

    Day after tomorrow, 1 June, Monday

    Time Temperature Precipitation Wind Pressure Humidity
    00:00 +9°C° 0 mm 1 mps 708 mmHg 90%
    01:00 +8°C° 0 mm 1 mps 708 mmHg 91%
    02:00 +8°C° 0 mm 1 mps 708 mmHg 91%
    03:00 +8°C° 0 mm 1 mps 708 mmHg 91%
    04:00 +7°C° 0 mm 1 mps 708 mmHg 91%
    05:00 +9°C° 0 mm 1 mps 708 mmHg 86%
    06:00 +10°C° 0 mm 1 mps 708 mmHg 82%
    07:00 +12°C° 0 mm 1 mps 709 mmHg 77%
    08:00 +14°C° 0 mm 1 mps 709 mmHg 70%
    09:00 +16°C° 0 mm 2 mps 709 mmHg 63%
    10:00 +18°C° 0 mm 2 mps 709 mmHg 56%
    11:00 +20°C° 0 mm 2 mps 709 mmHg 51%
    12:00 +21°C° 0 mm 2 mps 709 mmHg 46%
    13:00 +23°C° 0 mm 2 mps 709 mmHg 41%
    14:00 +24°C° 0 mm 2 mps 709 mmHg 42%
    15:00 +24°C° 0 mm 2 mps 709 mmHg 42%
    16:00 +24°C° 0 mm 2 mps 709 mmHg 42%
    17:00 +23°C° 0 mm 2 mps 709 mmHg 51%
    18:00 +20°C° 0 mm 2 mps 709 mmHg 60%
    19:00 +19°C° 0 mm 2 mps 709 mmHg 69%
    20:00 +17°C° 0 mm 2 mps 709 mmHg 75%
    21:00 +15°C° 0 mm 2 mps 709 mmHg 82%
    22:00 +13°C° 0 mm 1 mps 709 mmHg 88%
    23:00 +12°C° 0 mm 1 mps 708 mmHg 89%

    2 June, Tuesday

    Time Temperature Precipitation Wind Pressure Humidity
    00:00 +12°C° 0 mm 1 mps 708 mmHg 90%
    01:00 +11°C° 0 mm 1 mps 708 mmHg 91%
    02:00 +11°C° 0 mm 1 mps 708 mmHg 91%
    03:00 +10°C° 0 mm 1 mps 708 mmHg 91%
    04:00 +9°C° 0 mm 0 mps 707 mmHg 91%
    05:00 +10°C° 0 mm 0 mps 708 mmHg 87%
    06:00 +12°C° 0 mm 0 mps 708 mmHg 83%
    07:00 +13°C° 0 mm 0 mps 708 mmHg 79%
    08:00 +16°C° 0 mm 1 mps 708 mmHg 71%
    09:00 +20°C° 0 mm 1 mps 708 mmHg 63%
    10:00 +22°C° 0 mm 1 mps 708 mmHg 56%
    11:00 +23°C° 0 mm 2 mps 708 mmHg 52%
    12:00 +24°C° 0 mm 2 mps 708 mmHg 48%
    13:00 +25°C° 0 mm 2 mps 707 mmHg 44%
    14:00 +25°C° 0 mm 2 mps 707 mmHg 44%
    15:00 +25°C° 0 mm 3 mps 706 mmHg 44%
    16:00 +25°C° 0 mm 3 mps 706 mmHg 45%
    17:00 +22°C° 0 mm 3 mps 705 mmHg 53%
    18:00 +21°C° 0 mm 3 mps 705 mmHg 61%
    19:00 +19°C° 0 mm 2 mps 705 mmHg 69%
    20:00 +18°C° 0.1 mm 2 mps 704 mmHg 72%
    21:00 +16°C° 0.1 mm 2 mps 704 mmHg 76%
    22:00 +14°C° 0.1 mm 2 mps 704 mmHg 80%
    23:00 +14°C° 0.1 mm 1 mps 704 mmHg 82%

    3 June, Wednesday

    Time Temperature Precipitation Wind Pressure Humidity
    00:00 +13°C° 0.1 mm 1 mps 703 mmHg 85%
    01:00 +11°C° 0.1 mm 0 mps 703 mmHg 88%
    02:00 +11°C° 0.3 mm 0 mps 703 mmHg 88%
    03:00 +11°C° 0.3 mm 0 mps 702 mmHg 89%
    04:00 +11°C° 0.3 mm 0 mps 702 mmHg 90%
    05:00 +11°C° 0.1 mm 0 mps 702 mmHg 88%
    06:00 +13°C° 0.1 mm 1 mps 702 mmHg 87%
    07:00 +13°C° 0.1 mm 1 mps 702 mmHg 86%
    08:00 +15°C° 0.1 mm 1 mps 702 mmHg 80%
    09:00 +16°C° 0.1 mm 1 mps 703 mmHg 75%
    10:00 +19°C° 0.1 mm 1 mps 703 mmHg 69%
    11:00 +20°C° 0.2 mm 1 mps 703 mmHg 65%
    12:00 +21°C° 0.2 mm 1 mps 703 mmHg 61%
    13:00 +22°C° 0.2 mm 1 mps 703 mmHg 57%
    14:00 +23°C° 0.3 mm 2 mps 703 mmHg 58%
    15:00 +23°C° 0.3 mm 2 mps 703 mmHg 58%
    16:00 +23°C° 0.3 mm 2 mps 703 mmHg 59%
    17:00 +22°C° 0.2 mm 1 mps 703 mmHg 66%
    18:00 +21°C° 0.2 mm 1 mps 703 mmHg 72%
    19:00 +20°C° 0.2 mm 1 mps 703 mmHg 79%
    20:00 +18°C° 0 mm 1 mps 703 mmHg 81%
    21:00 +16°C° 0 mm 1 mps 703 mmHg 83%
    22:00 +14°C° 0 mm 1 mps 703 mmHg 85%
    23:00 +14°C° 0 mm 1 mps 703 mmHg 85%

    4 June, Thursday

    Time Temperature Precipitation Wind Pressure Humidity
    00:00 +14°C° 0 mm 1 mps 703 mmHg 85%
    01:00 +13°C° 0 mm 1 mps 703 mmHg 85%
    02:00 +13°C° 0 mm 1 mps 703 mmHg 87%
    03:00 +12°C° 0 mm 1 mps 703 mmHg 88%
    04:00 +12°C° 0 mm 1 mps 703 mmHg 89%
    05:00 +12°C° 0 mm 0 mps 703 mmHg 85%
    06:00 +14°C° 0 mm 0 mps 703 mmHg 82%
    07:00 +15°C° 0 mm 0 mps 703 mmHg 78%
    08:00 +19°C° 0.1 mm 1 mps 703 mmHg 72%
    09:00 +21°C° 0.1 mm 1 mps 704 mmHg 65%
    10:00 +23°C° 0.1 mm 1 mps 704 mmHg 59%
    11:00 +24°C° 0.1 mm 1 mps 704 mmHg 55%
    12:00 +26°C° 0.1 mm 1 mps 704 mmHg 50%
    13:00 +27°C° 0.1 mm 1 mps 704 mmHg 46%
    14:00 +27°C° 0.2 mm 1 mps 704 mmHg 47%
    15:00 +27°C° 0.2 mm 1 mps 703 mmHg 47%
    16:00 +26°C° 0.2 mm 1 mps 703 mmHg 48%
    17:00 +25°C° 0.2 mm 1 mps 703 mmHg 57%
    18:00 +23°C° 0.2 mm 1 mps 703 mmHg 66%
    19:00 +22°C° 0.2 mm 1 mps 703 mmHg 75%
    20:00 +20°C° 0.1 mm 1 mps 703 mmHg 79%
    21:00 +19°C° 0.1 mm 1 mps 703 mmHg 82%
    22:00 +16°C° 0.1 mm 1 mps 703 mmHg 86%
    23:00 +16°C° 0 mm 1 mps 702 mmHg 86%
    Show more